When you browse on this site, cookies collect data to enhance your experience and personalize the content and advertising you see.
Visit our Privacy Policy to learn more. By continuing to use the site, you agree to this use of cookies and data.
  • In Portugal
  • List of Countries
  • For 7 days
  • Water Temperature
  • Satellite Maps
  • Weather Map
  • Weather Widgets
  • user-avatar
    Login

    Hourly Weather Montana

    Today, 22 July, Monday

    Time Temperature Precipitation Wind Pressure Humidity
    00:00 +24°C° 0 mm 1 mps 737 mmHg 52%
    01:00 +23°C° 0 mm 1 mps 738 mmHg 51%
    02:00 +23°C° 0 mm 1 mps 738 mmHg 51%
    03:00 +23°C° 0 mm 1 mps 737 mmHg 51%
    04:00 +23°C° 0 mm 1 mps 737 mmHg 52%
    05:00 +22°C° 0 mm 1 mps 737 mmHg 52%
    06:00 +24°C° 0 mm 1 mps 737 mmHg 51%
    07:00 +26°C° 0 mm 1 mps 738 mmHg 49%
    08:00 +26°C° 0 mm 0 mps 738 mmHg 48%
    09:00 +29°C° 0 mm 1 mps 738 mmHg 46%
    10:00 +30°C° 0 mm 1 mps 738 mmHg 43%
    11:00 +32°C° 0 mm 2 mps 738 mmHg 41%
    12:00 +32°C° 0.1 mm 2 mps 738 mmHg 40%
    13:00 +34°C° 0.1 mm 2 mps 737 mmHg 39%
    14:00 +34°C° 0.1 mm 2 mps 737 mmHg 38%
    15:00 +32°C° 0.4 mm 2 mps 737 mmHg 46%
    16:00 +30°C° 0.4 mm 2 mps 736 mmHg 54%
    17:00 +28°C° 0.4 mm 2 mps 736 mmHg 62%
    18:00 +27°C° 0.6 mm 2 mps 736 mmHg 65%
    19:00 +26°C° 0.6 mm 2 mps 736 mmHg 68%
    20:00 +25°C° 0.6 mm 2 mps 736 mmHg 71%
    21:00 +24°C° 0.1 mm 2 mps 736 mmHg 72%
    22:00 +24°C° 0.1 mm 2 mps 736 mmHg 73%
    23:00 +23°C° 0.1 mm 2 mps 737 mmHg 74%

    Tomorrow, 23 July, Tuesday

    Time Temperature Precipitation Wind Pressure Humidity
    00:00 +23°C° 0 mm 2 mps 736 mmHg 74%
    01:00 +21°C° 0 mm 2 mps 736 mmHg 75%
    02:00 +21°C° 0 mm 2 mps 736 mmHg 76%
    03:00 +21°C° 0 mm 2 mps 736 mmHg 75%
    04:00 +20°C° 0 mm 2 mps 736 mmHg 74%
    05:00 +20°C° 0 mm 2 mps 736 mmHg 73%
    06:00 +21°C° 0 mm 3 mps 736 mmHg 70%
    07:00 +24°C° 0 mm 3 mps 736 mmHg 67%
    08:00 +25°C° 0 mm 3 mps 736 mmHg 65%
    09:00 +26°C° 0 mm 3 mps 736 mmHg 60%
    10:00 +27°C° 0 mm 3 mps 736 mmHg 56%
    11:00 +28°C° 0 mm 3 mps 736 mmHg 52%
    12:00 +29°C° 0 mm 4 mps 735 mmHg 50%
    13:00 +29°C° 0 mm 4 mps 735 mmHg 49%
    14:00 +29°C° 0 mm 4 mps 734 mmHg 48%
    15:00 +29°C° 0 mm 4 mps 734 mmHg 47%
    16:00 +29°C° 0 mm 4 mps 734 mmHg 47%
    17:00 +29°C° 0 mm 4 mps 734 mmHg 47%
    18:00 +28°C° 0 mm 4 mps 734 mmHg 52%
    19:00 +26°C° 0 mm 3 mps 734 mmHg 57%
    20:00 +24°C° 0 mm 3 mps 734 mmHg 62%
    21:00 +24°C° 0 mm 3 mps 735 mmHg 66%
    22:00 +22°C° 0 mm 3 mps 735 mmHg 69%
    23:00 +21°C° 0 mm 2 mps 736 mmHg 72%

    Day after tomorrow, 24 July, Wednesday

    Time Temperature Precipitation Wind Pressure Humidity
    00:00 +20°C° 0 mm 2 mps 735 mmHg 78%
    01:00 +20°C° 0 mm 1 mps 735 mmHg 83%
    02:00 +19°C° 0 mm 1 mps 735 mmHg 88%
    03:00 +19°C° 0 mm 1 mps 735 mmHg 87%
    04:00 +19°C° 0 mm 1 mps 735 mmHg 87%
    05:00 +19°C° 0 mm 1 mps 735 mmHg 86%
    06:00 +20°C° 0 mm 1 mps 735 mmHg 85%
    07:00 +20°C° 0 mm 1 mps 736 mmHg 84%
    08:00 +21°C° 0 mm 1 mps 736 mmHg 83%
    09:00 +22°C° 0.1 mm 1 mps 736 mmHg 76%
    10:00 +24°C° 0.1 mm 1 mps 735 mmHg 69%
    11:00 +26°C° 0.1 mm 2 mps 735 mmHg 62%
    12:00 +27°C° 0.1 mm 1 mps 735 mmHg 58%
    13:00 +27°C° 0.1 mm 1 mps 735 mmHg 55%
    14:00 +28°C° 0.1 mm 1 mps 735 mmHg 52%
    15:00 +28°C° 0.1 mm 1 mps 735 mmHg 51%
    16:00 +28°C° 0.1 mm 1 mps 735 mmHg 51%
    17:00 +28°C° 0.1 mm 1 mps 734 mmHg 51%
    18:00 +27°C° 0 mm 1 mps 735 mmHg 56%
    19:00 +25°C° 0 mm 1 mps 735 mmHg 61%
    20:00 +23°C° 0 mm 1 mps 735 mmHg 65%
    21:00 +23°C° 0 mm 1 mps 735 mmHg 67%
    22:00 +22°C° 0 mm 1 mps 735 mmHg 68%
    23:00 +22°C° 0 mm 1 mps 736 mmHg 69%

    25 July, Thursday

    Time Temperature Precipitation Wind Pressure Humidity
    00:00 +21°C° 0 mm 1 mps 735 mmHg 69%
    01:00 +21°C° 0 mm 1 mps 735 mmHg 69%
    02:00 +21°C° 0 mm 1 mps 735 mmHg 70%
    03:00 +20°C° 0 mm 1 mps 735 mmHg 71%
    04:00 +20°C° 0 mm 1 mps 735 mmHg 72%
    05:00 +20°C° 0 mm 1 mps 735 mmHg 73%
    06:00 +22°C° 0 mm 1 mps 735 mmHg 69%
    07:00 +23°C° 0 mm 1 mps 736 mmHg 65%
    08:00 +23°C° 0 mm 0 mps 736 mmHg 61%
    09:00 +26°C° 0 mm 1 mps 736 mmHg 57%
    10:00 +28°C° 0 mm 1 mps 736 mmHg 53%
    11:00 +29°C° 0 mm 1 mps 736 mmHg 49%
    12:00 +29°C° 0.1 mm 1 mps 736 mmHg 48%
    13:00 +29°C° 0.1 mm 1 mps 735 mmHg 48%
    14:00 +30°C° 0.1 mm 1 mps 735 mmHg 47%
    15:00 +30°C° 0 mm 1 mps 735 mmHg 47%
    16:00 +30°C° 0 mm 1 mps 734 mmHg 48%
    17:00 +30°C° 0 mm 1 mps 734 mmHg 48%
    18:00 +28°C° 0 mm 1 mps 734 mmHg 52%
    19:00 +27°C° 0 mm 2 mps 734 mmHg 56%
    20:00 +25°C° 0 mm 2 mps 734 mmHg 60%
    21:00 +25°C° 0 mm 2 mps 734 mmHg 59%
    22:00 +24°C° 0 mm 1 mps 735 mmHg 59%
    23:00 +24°C° 0 mm 1 mps 735 mmHg 59%

    26 July, Friday

    Time Temperature Precipitation Wind Pressure Humidity
    00:00 +24°C° 0 mm 1 mps 735 mmHg 60%
    01:00 +23°C° 0 mm 1 mps 734 mmHg 61%
    02:00 +23°C° 0 mm 1 mps 734 mmHg 62%
    03:00 +22°C° 0 mm 1 mps 734 mmHg 64%
    04:00 +22°C° 0 mm 1 mps 734 mmHg 66%
    05:00 +22°C° 0 mm 1 mps 734 mmHg 68%
    06:00 +23°C° 0 mm 1 mps 734 mmHg 65%
    07:00 +24°C° 0 mm 1 mps 734 mmHg 62%
    08:00 +26°C° 0 mm 1 mps 734 mmHg 59%
    09:00 +27°C° 0 mm 2 mps 734 mmHg 55%
    10:00 +28°C° 0 mm 2 mps 734 mmHg 51%
    11:00 +30°C° 0 mm 2 mps 734 mmHg 48%
    12:00 +30°C° 0 mm 2 mps 734 mmHg 45%
    13:00 +31°C° 0 mm 1 mps 733 mmHg 43%
    14:00 +32°C° 0 mm 1 mps 733 mmHg 41%
    15:00 +32°C° 0 mm 1 mps 733 mmHg 40%
    16:00 +31°C° 0 mm 1 mps 733 mmHg 40%
    17:00 +31°C° 0 mm 1 mps 733 mmHg 40%
    18:00 +29°C° 0 mm 1 mps 733 mmHg 45%
    19:00 +28°C° 0 mm 1 mps 733 mmHg 51%
    20:00 +26°C° 0 mm 2 mps 732 mmHg 57%
    21:00 +25°C° 0 mm 1 mps 733 mmHg 58%
    22:00 +25°C° 0 mm 1 mps 733 mmHg 59%
    23:00 +24°C° 0 mm 1 mps 733 mmHg 59%

    27 July, Saturday

    Time Temperature Precipitation Wind Pressure Humidity
    00:00 +24°C° 0 mm 1 mps 733 mmHg 60%
    01:00 +23°C° 0 mm 1 mps 733 mmHg 60%
    02:00 +23°C° 0 mm 1 mps 733 mmHg 61%
    03:00 +22°C° 0 mm 1 mps 733 mmHg 63%
    04:00 +22°C° 0 mm 1 mps 733 mmHg 66%
    05:00 +19°C° 0 mm 0 mps 733 mmHg 68%
    06:00 +23°C° 0 mm 1 mps 733 mmHg 64%
    07:00 +24°C° 0 mm 1 mps 733 mmHg 60%
    08:00 +26°C° 0 mm 1 mps 733 mmHg 56%
    09:00 +27°C° 0 mm 2 mps 733 mmHg 53%
    10:00 +29°C° 0 mm 2 mps 733 mmHg 49%
    11:00 +30°C° 0 mm 2 mps 733 mmHg 46%
    12:00 +31°C° 0 mm 2 mps 732 mmHg 45%
    13:00 +31°C° 0 mm 3 mps 732 mmHg 44%
    14:00 +33°C° 0 mm 3 mps 731 mmHg 43%
    15:00 +31°C° 0 mm 3 mps 731 mmHg 44%
    16:00 +31°C° 0 mm 3 mps 731 mmHg 44%
    17:00 +31°C° 0 mm 3 mps 730 mmHg 45%
    18:00 +29°C° 0 mm 2 mps 730 mmHg 52%
    19:00 +27°C° 0 mm 2 mps 730 mmHg 59%
    20:00 +25°C° 0 mm 1 mps 730 mmHg 67%
    21:00 +24°C° 0 mm 1 mps 730 mmHg 68%
    22:00 +24°C° 0 mm 1 mps 730 mmHg 69%
    23:00 +23°C° 0 mm 1 mps 730 mmHg 70%
    Show more